Location: Contre
(49.7477°N, 2.0963°E)
Time: 23:38:26
(UTC+00:00)

Envisat - Pass Details

Date: 03 March 2024
Orbit: 762 x 764 km, 98.3° (Epoch: 12 April)

Event Time Altitude Azimuth Distance (km) Brightness Sun altitude
Rises 04:04:28 0° 10° (N) 3,243 6.6 -24.0°
Reaches altitude 10° 04:06:51 10° 5° (N) 2,312 5.7 -23.6°
Enters shadow 04:11:33 48° 299° (WNW) 999 3.3 -22.9°
